| time (UTC) | temp F | wind direction | speed MPH | gust MPH | rain 1hr in | rain 24hr in | rain mn in | humidity % | barometer mb |
| 20260906223738 | 98 | 139 | 4.0 | 8.0 | 0.00 | 0.00 | 0.00 | 37 | 1010.7 |
| 20260906221725 | 98 | 70 | 3.0 | 6.0 | 0.00 | 0.00 | 0.00 | 38 | 1010.8 |
| 20260906220739 | 98 | 131 | 4.0 | 10.0 | 0.00 | 0.00 | 0.00 | 37 | 1011.0 |
| 20260906214722 | 96 | 153 | 8.0 | 12.0 | 0.00 | 0.00 | 0.00 | 40 | 1011.0 |
| 20260906211923 | 98 | 66 | 7.0 | 12.0 | 0.00 | 0.00 | 0.00 | 39 | 1011.3 |
| 20260906205941 | 96 | 105 | 5.0 | 11.0 | 0.00 | 0.00 | 0.00 | 41 | 1011.7 |
| 20260906204923 | 96 | 66 | 7.0 | 9.0 | 0.00 | 0.00 | 0.00 | 40 | 1011.7 |
| 20260906203924 | 96 | 75 | 3.0 | 6.0 | 0.00 | 0.00 | 0.00 | 40 | 1011.9 |
| 20260906202941 | 97 | 91 | 7.0 | 10.0 | 0.00 | 0.00 | 0.00 | 40 | 1011.9 |
| 20260906201122 | 97 | 91 | 7.0 | 9.0 | 0.00 | 0.00 | 0.00 | 40 | 1012.3 |
| 20260906200142 | 97 | 153 | 7.0 | 10.0 | 0.00 | 0.00 | 0.00 | 40 | 1012.2 |
| 20260906195223 | 97 | 93 | 5.0 | 8.0 | 0.00 | 0.00 | 0.00 | 41 | 1012.4 |
| 20260906193225 | 97 | 101 | 4.0 | 6.0 | 0.00 | 0.00 | 0.00 | 43 | 1012.4 |
| 20260906191323 | 95 | 84 | 4.0 | 8.0 | 0.00 | 0.00 | 0.00 | 45 | 1012.8 |
| 20260906184423 | 94 | 112 | 3.0 | 9.0 | 0.00 | 0.00 | 0.00 | 45 | 1013.1 |
| 20260906183424 | 94 | 109 | 9.0 | 14.0 | 0.00 | 0.00 | 0.00 | 44 | 1013.2 |
| 20260906182523 | 94 | 82 | 4.0 | 5.0 | 0.00 | 0.00 | 0.00 | 45 | 1013.3 |
| 20260906181523 | 94 | 100 | 4.0 | 7.0 | 0.00 | 0.00 | 0.00 | 44 | 1013.4 |
| 20260906180622 | 94 | 93 | 6.0 | 7.0 | 0.00 | 0.00 | 0.00 | 46 | 1013.6 |
| 20260906175625 | 94 | 124 | 6.0 | 10.0 | 0.00 | 0.00 | 0.00 | 47 | 1013.8 |
| 20260906174723 | 93 | 90 | 1.0 | 2.0 | 0.00 | 0.00 | 0.00 | 47 | 1013.9 |
| 20260906173729 | 93 | 69 | 9.0 | 11.0 | 0.00 | 0.00 | 0.00 | 48 | 1013.9 |
| 20260906172723 | 93 | 58 | 5.0 | 8.0 | 0.00 | 0.00 | 0.00 | 48 | 1014.1 |
| 20260906171724 | 93 | 142 | 4.0 | 9.0 | 0.00 | 0.00 | 0.00 | 47 | 1014.4 |
| 20260906170741 | 93 | 104 | 3.0 | 6.0 | 0.00 | 0.00 | 0.00 | 49 | 1014.6 |
| 20260906165723 | 94 | 142 | 8.0 | 11.0 | 0.00 | 0.00 | 0.00 | 47 | 1014.7 |
| 20260906164724 | 94 | 104 | 3.0 | 5.0 | 0.00 | 0.00 | 0.00 | 49 | 1014.6 |
| 20260906163724 | 93 | 40 | 3.0 | 4.0 | 0.00 | 0.00 | 0.00 | 50 | 1014.7 |
| 20260906162739 | 91 | 101 | 0.0 | 3.0 | 0.00 | 0.00 | 0.00 | 53 | 1014.6 |
| 20260906161822 | 90 | 83 | 5.0 | 7.0 | 0.00 | 0.00 | 0.00 | 55 | 1014.6 |
| 20260906160825 | 90 | 91 | 4.0 | 7.0 | 0.00 | 0.00 | 0.00 | 56 | 1014.7 |
| 20260906155823 | 90 | 68 | 5.0 | 8.0 | 0.00 | 0.00 | 0.00 | 57 | 1014.7 |
| 20260906154840 | 90 | 65 | 4.0 | 7.0 | 0.00 | 0.00 | 0.00 | 55 | 1014.6 |
| 20260906153823 | 91 | 16 | 4.0 | 6.0 | 0.00 | 0.00 | 0.00 | 56 | 1014.6 |
| 20260906152823 | 91 | 139 | 1.0 | 5.0 | 0.00 | 0.00 | 0.00 | 57 | 1014.6 |
| 20260906151825 | 89 | 90 | 0.0 | 1.0 | 0.00 | 0.00 | 0.00 | 59 | 1014.6 |
| 20260906150823 | 89 | 107 | 3.0 | 5.0 | 0.00 | 0.00 | 0.00 | 61 | 1014.5 |
| 20260906145824 | 87 | 90 | 1.0 | 3.0 | 0.00 | 0.00 | 0.00 | 63 | 1014.5 |
| 20260906144824 | 86 | 48 | 1.0 | 3.0 | 0.00 | 0.00 | 0.00 | 65 | 1014.3 |
| 20260906143922 | 86 | 44 | 4.0 | 5.0 | 0.00 | 0.00 | 0.00 | 64 | 1014.4 |
| 20260906142939 | 85 | 112 | 1.0 | 3.0 | 0.00 | 0.00 | 0.00 | 66 | 1014.4 |
| 20260906141924 | 85 | 82 | 3.0 | 4.0 | 0.00 | 0.00 | 0.00 | 67 | 1014.5 |
| 20260906140923 | 85 | 112 | 1.0 | 2.0 | 0.00 | 0.00 | 0.00 | 68 | 1014.5 |
| 20260906134924 | 82 | 104 | 0.0 | 0.0 | 0.00 | 0.00 | 0.00 | 72 | 1014.2 |
| 20260906132924 | 80 | 45 | 2.0 | 3.0 | 0.00 | 0.00 | 0.00 | 76 | 1014.1 |
| 20260906131924 | 80 | 67 | 2.0 | 2.0 | 0.00 | 0.00 | 0.00 | 76 | 1014.2 |
| 20260906130923 | 79 | 67 | 0.0 | 0.0 | 0.00 | 0.00 | 0.00 | 80 | 1014.2 |
| 20260906124939 | 76 | 135 | 0.0 | 0.0 | 0.00 | 0.00 | 0.00 | 85 | 1014.2 |
| 20260906123024 | 75 | 135 | 0.0 | 0.0 | 0.00 | 0.00 | 0.00 | 86 | 1014.0 |
| 20260906121022 | 75 | 135 | 0.0 | 0.0 | 0.00 | 0.00 | 0.00 | 85 | 1013.9 |
| 20260906120025 | 75 | 135 | 0.0 | 0.0 | 0.00 | 0.00 | 0.00 | 85 | 1013.7 |
| 20260906115024 | 75 | 135 | 0.0 | 0.0 | 0.00 | 0.00 | 0.00 | 84 | 1013.6 |
| 20260906113123 | 75 | 135 | 0.0 | 0.0 | 0.00 | 0.00 | 0.00 | 85 | 1013.4 |
| 20260906112122 | 75 | 112 | 1.0 | 2.0 | 0.00 | 0.00 | 0.00 | 85 | 1013.3 |
| 20260906111124 | 75 | 67 | 0.0 | 0.0 | 0.00 | 0.00 | 0.00 | 84 | 1013.4 |
| 20260906110221 | 75 | 67 | 0.0 | 0.0 | 0.00 | 0.00 | 0.00 | 84 | 1013.3 |
| 20260906104222 | 76 | 315 | 0.0 | 0.0 | 0.00 | 0.00 | 0.00 | 83 | 1013.1 |
| 20260906103222 | 76 | 157 | 0.0 | 0.0 | 0.00 | 0.00 | 0.00 | 83 | 1013.0 |
| 20260906102222 | 76 | 157 | 0.0 | 0.0 | 0.00 | 0.00 | 0.00 | 83 | 1013.1 |
| 20260906101223 | 76 | 157 | 0.0 | 0.0 | 0.00 | 0.00 | 0.00 | 81 | 1013.1 |
| 20260906095322 | 77 | 157 | 0.0 | 0.0 | 0.00 | 0.00 | 0.00 | 80 | 1012.8 |
| 20260906093323 | 77 | 157 | 0.0 | 0.0 | 0.00 | 0.00 | 0.00 | 81 | 1012.5 |
| 20260906092323 | 77 | 157 | 3.0 | 4.0 | 0.00 | 0.00 | 0.00 | 81 | 1012.4 |
| 20260906091322 | 77 | 119 | 1.0 | 2.0 | 0.00 | 0.00 | 0.00 | 81 | 1012.5 |
| 20260906090322 | 77 | 135 | 0.0 | 1.0 | 0.00 | 0.00 | 0.00 | 80 | 1012.3 |
| 20260906085323 | 77 | 157 | 2.0 | 3.0 | 0.00 | 0.00 | 0.00 | 81 | 1012.3 |
| 20260906084341 | 77 | 157 | 2.0 | 4.0 | 0.00 | 0.00 | 0.00 | 80 | 1012.2 |
| 20260906083323 | 78 | 180 | 1.0 | 3.0 | 0.00 | 0.00 | 0.00 | 80 | 1012.2 |
| 20260906082323 | 78 | 202 | 2.0 | 4.0 | 0.00 | 0.00 | 0.00 | 79 | 1012.3 |
| 20260906081325 | 78 | 180 | 0.0 | 1.0 | 0.00 | 0.00 | 0.00 | 79 | 1012.6 |
| 20260906074422 | 79 | 180 | 0.0 | 0.0 | 0.00 | 0.00 | 0.00 | 77 | 1012.9 |
| 20260906073437 | 79 | 180 | 0.0 | 1.0 | 0.00 | 0.00 | 0.00 | 76 | 1012.8 |
| 20260906072442 | 80 | 202 | 2.0 | 4.0 | 0.00 | 0.00 | 0.00 | 76 | 1012.7 |
| 20260906071421 | 80 | 157 | 2.0 | 4.0 | 0.00 | 0.00 | 0.00 | 75 | 1012.6 |
| 20260906070437 | 80 | 157 | 2.0 | 5.0 | 0.00 | 0.00 | 0.00 | 76 | 1012.7 |
| 20260906065523 | 80 | 157 | 4.0 | 6.0 | 0.00 | 0.00 | 0.00 | 75 | 1012.6 |
| 20260906064539 | 80 | 164 | 3.0 | 5.0 | 0.00 | 0.00 | 0.00 | 74 | 1012.8 |
| 20260906063621 | 81 | 158 | 4.0 | 6.0 | 0.00 | 0.00 | 0.00 | 74 | 1012.9 |
| 20260906062622 | 81 | 159 | 2.0 | 5.0 | 0.00 | 0.00 | 0.00 | 73 | 1012.9 |
| 20260906061637 | 81 | 161 | 3.0 | 6.0 | 0.00 | 0.00 | 0.00 | 72 | 1013.0 |
| 20260906060621 | 81 | 161 | 3.0 | 5.0 | 0.00 | 0.00 | 0.00 | 72 | 1013.0 |
| 20260906054637 | 82 | 157 | 0.0 | 2.0 | 0.00 | 0.00 | 0.00 | 70 | 1013.0 |
| 20260906053623 | 82 | 170 | 1.0 | 3.0 | 0.00 | 0.00 | 0.00 | 70 | 1013.0 |
| 20260906052622 | 82 | 157 | 1.0 | 2.0 | 0.00 | 0.00 | 0.00 | 69 | 1013.1 |
| 20260906051623 | 83 | 157 | 1.0 | 2.0 | 0.00 | 0.00 | 0.00 | 69 | 1013.1 |
| 20260906050721 | 83 | 157 | 0.0 | 2.0 | 0.00 | 0.00 | 0.00 | 68 | 1013.0 |
| 20260906044726 | 84 | 157 | 3.0 | 4.0 | 0.00 | 0.00 | 0.00 | 67 | 1012.9 |
| 20260906043725 | 84 | 157 | 1.0 | 5.0 | 0.00 | 0.00 | 0.00 | 66 | 1012.8 |
| 20260906042741 | 85 | 159 | 4.0 | 6.0 | 0.00 | 0.00 | 0.00 | 67 | 1012.8 |
| 20260906041729 | 85 | 155 | 6.0 | 9.0 | 0.00 | 0.00 | 0.00 | 67 | 1012.8 |
| 20260906040725 | 85 | 156 | 5.0 | 7.0 | 0.00 | 0.00 | 0.00 | 65 | 1012.7 |
| 20260906034726 | 86 | 148 | 6.0 | 8.0 | 0.00 | 0.00 | 0.00 | 65 | 1012.7 |
| 20260906032726 | 86 | 150 | 7.0 | 9.0 | 0.00 | 0.00 | 0.00 | 63 | 1012.8 |
| 20260906031825 | 87 | 142 | 5.0 | 7.0 | 0.00 | 0.00 | 0.00 | 62 | 1012.9 |
| 20260906030824 | 87 | 140 | 4.0 | 5.0 | 0.00 | 0.00 | 0.00 | 61 | 1012.9 |
| 20260906025843 | 88 | 150 | 6.0 | 8.0 | 0.00 | 0.00 | 0.00 | 59 | 1012.7 |
| 20260906024924 | 88 | 147 | 8.0 | 9.0 | 0.00 | 0.00 | 0.00 | 58 | 1012.5 |
| 20260906023928 | 88 | 152 | 8.0 | 10.0 | 0.00 | 0.00 | 0.00 | 56 | 1012.4 |
| 20260906022926 | 89 | 142 | 3.0 | 6.0 | 0.00 | 0.00 | 0.00 | 55 | 1012.2 |
| 20260906021946 | 89 | 146 | 7.0 | 9.0 | 0.00 | 0.00 | 0.00 | 53 | 1012.1 |
| 20260906020946 | 90 | 137 | 6.0 | 11.0 | 0.00 | 0.00 | 0.00 | 51 | 1012.0 |
| 20260906015947 | 91 | 144 | 7.0 | 10.0 | 0.00 | 0.00 | 0.00 | 49 | 1011.9 |
| 20260906015046 | 92 | 130 | 4.0 | 7.0 | 0.00 | 0.00 | 0.00 | 47 | 1011.6 |
| 20260906014146 | 92 | 155 | 5.0 | 8.0 | 0.00 | 0.00 | 0.00 | 47 | 1011.3 |
| 20260906012148 | 93 | 131 | 5.0 | 10.0 | 0.00 | 0.00 | 0.00 | 45 | 1011.1 |
| 20260906011203 | 94 | 142 | 5.0 | 7.0 | 0.00 | 0.00 | 0.00 | 42 | 1011.0 |
| 20260906010246 | 95 | 142 | 5.0 | 8.0 | 0.00 | 0.00 | 0.00 | 40 | 1010.7 |
| 20260906005344 | 95 | 134 | 2.0 | 5.0 | 0.00 | 0.00 | 0.00 | 41 | 1010.9 |
| 20260906004347 | 96 | 133 | 3.0 | 7.0 | 0.00 | 0.00 | 0.00 | 39 | 1010.8 |
| 20260906003445 | 97 | 108 | 1.0 | 2.0 | 0.00 | 0.00 | 0.00 | 39 | 1010.8 |
| 20260906002447 | 96 | 121 | 1.0 | 4.0 | 0.00 | 0.00 | 0.00 | 38 | 1010.8 |
| 20260906000501 | 97 | 101 | 7.0 | 10.0 | 0.00 | 0.00 | 0.00 | 38 | 1010.6 |
| 20260905235447 | 97 | 101 | 5.0 | 10.0 | 0.00 | 0.00 | 0.00 | 38 | 1010.7 |
| 20260905234445 | 98 | 91 | 3.0 | 6.0 | 0.00 | 0.00 | 0.00 | 38 | 1010.6 |
| 20260905232447 | 98 | 95 | 4.0 | 7.0 | 0.00 | 0.00 | 0.00 | 36 | 1010.6 |
| 20260905231545 | 99 | 107 | 5.0 | 8.0 | 0.00 | 0.00 | 0.00 | 37 | 1010.5 |
| 20260905230600 | 99 | 93 | 6.0 | 9.0 | 0.00 | 0.00 | 0.00 | 36 | 1010.5 |
| 20260905225647 | 99 | 22 | 4.0 | 6.0 | 0.00 | 0.00 | 0.00 | 36 | 1010.5 |
| 20260905224646 | 99 | 90 | 3.0 | 7.0 | 0.00 | 0.00 | 0.00 | 35 | 1010.4 |